METEOR 2-17 DEB, 35372

Orbit data source: Space-Track

METEOR 2-17 DEB, 35372 is space debris in LEO originally from a launch on Sat, 30 Jan 1988 UTC launched from the Plesetsk Missile And Space Complex (PKMTR). Debris objects in space refer to the collection of defunct objects orbiting the Earth. Examples of debris include non-operational satellites, rocket bodies, and fragments generated from explosions, collisions, or faulty payload assembly.

Loading next visibility...
Identifier
35372, 1988-005AG
Orbit
LEO
Last TLE update
6 hours ago
Origin
Manufacturer
Unknown
Mission
Spacecraft
Bus & Motor
Unknown
Mass
Unknown
Launch date (UTC)
1988-01-30 (37 years ago)
Launch vehicle
Unknown
Launch site
Plesetsk Missile And Space Complex (PKMTR)
Object type
Payload
Rocket body
Debris
Shape & HBR
Unknown
Radar Cross Section
Small (<0.1 m²)

Expand to show TLE details & history

TLE from 6 hours ago
0 METEOR 2-17 DEB
1 35372U 88005AG  25129.06554461  .00003201  00000-0  21655-2 0  9998
2 35372  82.5254 248.8086 0017165 325.3174 158.8757 13.99966163907942
Epoch: 2025-05-09T01:34Z
Definitive object data (Epoch: 2025-05-09T01:34:23.054Z)
Latitude
55.12626°
Longitude
167.29193°
Altitude
914.69 km
Speed
7.394 km/s
True Right ascension
03h 52m 03s
True Declination
54° 58' 06"
Sunlit
Object was in daylight at TLE epoch
Visualization TLE readout
Latitude
43.38262°
Longitude
4.95°
Altitude
897.982 km
Speed
7.408 km/s
Apparent Right ascension
21h 19m 58s
Apparent Declination
37° 14' 09"
Sunlit
Object is in daylight
Visualization observer readout
Local Sidereal Time
16:12:06
Azimuth
65.781° ENE
Elevation
31.733°
Doppler factor
1
Orbital elements
Apogee altitude
903.521 km
Perigee altitude
878.566 km
Semi-major axis
7,269.18 km
Eccentricity
0.0017165
Inclination
82.5254°
RAAN
248.8086°
Arg. of periapsis
325.3174°
True anomaly
158.94645°
Mean anomaly
158.8757°
Eccentric anomaly
158.91109°
Mean motion
3.50199 °/min
BSTAR
0.0021655
Orbital period
102.8 mins
Loading maneuver chart data...
Loading SW <> Apogee altitude chart data...
Loading historical data...
Loading historical data...
Loading historical data...
Loading historical data...
Loading historical data...
Loading historical data...
Loading historical data...

METEOR 2-17 DEB Visibility forecast

Observer location: undefined°, undefined°

Span
Click to sort rows by Start time (UTC) header in descending order
Start Az.
Max El. time (UTC)
Max El. Az.
Max El.
End time (UTC)
End Az.
4 mins2025-05-09 08:03:00.423Z66.214° ENE2025-05-09 08:03:00.423Z66.214° ENE27.705°2025-05-09 08:07:00.423Z26.288° NE
8 mins2025-05-09 09:42:00.423Z235.035° WSW2025-05-09 09:46:00.423Z294.741° NW26.767°2025-05-09 09:50:00.423Z343.487° N
7 mins2025-05-09 18:44:00.423Z30.678° NE2025-05-09 18:47:00.423Z69.415° E22.132°2025-05-09 18:51:00.423Z118.75° SE
9 mins2025-05-09 20:27:00.423Z333.482° NNW2025-05-09 20:31:00.423Z269.776° W35.583°2025-05-09 20:36:00.423Z199.943° SSW
4 mins2025-05-10 07:59:00.423Z149.59° SSE2025-05-10 08:03:00.423Z83.506° E32.76°2025-05-10 08:03:00.423Z83.506° E
|